TimeEDT,TemperatureF,Dew PointF,Humidity,Sea Level PressureIn,VisibilityMPH,Wind Direction,Wind SpeedMPH,Gust SpeedMPH,PrecipitationIn,Events,Conditions,WindDirDegrees,DateUTC
12:52 AM,39.9,37.0,89,30.17,10.0,Calm,Calm,-,N/A,,Clear,0,2013-09-19 04:52:00
1:52 AM,39.0,36.0,89,30.18,10.0,Calm,Calm,-,N/A,,Clear,0,2013-09-19 05:52:00
2:28 AM,37.4,35.6,93,30.16,10.0,Calm,Calm,-,N/A,,Scattered Clouds,0,2013-09-19 06:28:00
2:52 AM,37.9,35.1,89,30.18,10.0,Calm,Calm,-,N/A,,Partly Cloudy,0,2013-09-19 06:52:00
3:52 AM,37.0,34.0,89,30.17,10.0,Calm,Calm,-,N/A,,Clear,0,2013-09-19 07:52:00
4:52 AM,36.0,33.1,89,30.17,10.0,Calm,Calm,-,N/A,,Clear,0,2013-09-19 08:52:00
5:52 AM,35.1,33.1,92,30.17,10.0,Calm,Calm,-,N/A,,Scattered Clouds,0,2013-09-19 09:52:00
5:58 AM,35.6,33.8,93,30.15,10.0,Calm,Calm,-,N/A,,Mostly Cloudy,0,2013-09-19 09:58:00
6:52 AM,35.1,33.1,92,30.19,10.0,Calm,Calm,-,N/A,,Overcast,0,2013-09-19 10:52:00
7:00 AM,35.6,33.8,93,30.17,1.8,Calm,Calm,-,N/A,,Overcast,0,2013-09-19 11:00:00
7:11 AM,35.6,33.8,93,30.17,0.8,Calm,Calm,-,N/A,,Overcast,0,2013-09-19 11:11:00
7:52 AM,37.9,37.0,97,30.19,0.5,Calm,Calm,-,N/A,Fog,Fog,0,2013-09-19 11:52:00
8:09 AM,39.2,39.2,100,30.17,1.2,Calm,Calm,-,N/A,,Overcast,0,2013-09-19 12:09:00
8:13 AM,41.0,39.2,93,30.16,3.0,Calm,Calm,-,N/A,,Mostly Cloudy,0,2013-09-19 12:13:00
8:28 AM,42.8,41.0,93,30.16,10.0,Calm,Calm,-,N/A,,Scattered Clouds,0,2013-09-19 12:28:00
8:52 AM,46.9,44.1,90,30.18,10.0,Calm,Calm,-,N/A,,Clear,0,2013-09-19 12:52:00
9:52 AM,55.9,46.9,72,30.17,10.0,Calm,Calm,-,N/A,,Clear,0,2013-09-19 13:52:00
10:52 AM,64.9,50.0,58,30.15,10.0,WNW,3.5,-,N/A,,Clear,290,2013-09-19 14:52:00
11:52 AM,68.0,45.0,43,30.14,10.0,WNW,3.5,-,N/A,,Clear,290,2013-09-19 15:52:00
12:52 PM,71.1,42.1,35,30.13,10.0,Variable,4.6,-,N/A,,Clear,0,2013-09-19 16:52:00
1:52 PM,73.0,42.1,33,30.10,10.0,Variable,4.6,-,N/A,,Clear,0,2013-09-19 17:52:00
2:52 PM,73.9,37.9,27,30.08,10.0,West,6.9,-,N/A,,Clear,260,2013-09-19 18:52:00
3:52 PM,73.9,39.0,28,30.06,10.0,Variable,3.5,-,N/A,,Clear,0,2013-09-19 19:52:00
4:52 PM,73.9,43.0,33,30.06,10.0,West,4.6,-,N/A,,Clear,260,2013-09-19 20:52:00
5:52 PM,72.0,48.0,43,30.06,10.0,Calm,Calm,-,N/A,,Clear,0,2013-09-19 21:52:00
6:52 PM,60.1,51.1,72,30.09,10.0,Calm,Calm,-,N/A,,Clear,0,2013-09-19 22:52:00
7:52 PM,55.0,50.0,83,30.09,10.0,East,3.5,-,N/A,,Clear,80,2013-09-19 23:52:00
8:52 PM,50.0,46.9,89,30.10,10.0,Calm,Calm,-,N/A,,Clear,0,2013-09-20 00:52:00
9:52 PM,48.0,45.0,89,30.10,10.0,Calm,Calm,-,N/A,,Clear,0,2013-09-20 01:52:00
10:52 PM,46.0,43.0,89,30.10,10.0,Calm,Calm,-,N/A,,Clear,0,2013-09-20 02:52:00
11:52 PM,45.0,42.1,90,30.11,10.0,Calm,Calm,-,N/A,,Clear,0,2013-09-20 03:52:00